Hourly Weather Sulukta

Today, 6 August, Thursday

Time Temperature Precipitation Wind Pressure Humidity
00:00 +24°C° 0 mm 1 mps 646 mmHg 31%
01:00 +24°C° 0 mm 1 mps 646 mmHg 32%
02:00 +23°C° 0 mm 1 mps 646 mmHg 32%
03:00 +22°C° 0 mm 1 mps 646 mmHg 34%
04:00 +22°C° 0 mm 1 mps 645 mmHg 36%
05:00 +21°C° 0 mm 1 mps 645 mmHg 38%
06:00 +22°C° 0 mm 1 mps 646 mmHg 35%
07:00 +24°C° 0 mm 2 mps 647 mmHg 33%
08:00 +25°C° 0 mm 2 mps 647 mmHg 30%
09:00 +26°C° 0 mm 2 mps 648 mmHg 29%
10:00 +27°C° 0 mm 3 mps 648 mmHg 28%
11:00 +28°C° 0 mm 3 mps 648 mmHg 27%
12:00 +29°C° 0 mm 3 mps 648 mmHg 26%
13:00 +30°C° 0 mm 3 mps 648 mmHg 24%
14:00 +31°C° 0 mm 3 mps 647 mmHg 23%
15:00 +31°C° 0 mm 3 mps 648 mmHg 23%
16:00 +31°C° 0 mm 3 mps 648 mmHg 22%
17:00 +32°C° 0 mm 2 mps 648 mmHg 21%
18:00 +30°C° 0 mm 2 mps 648 mmHg 24%
19:00 +29°C° 0 mm 2 mps 647 mmHg 26%
20:00 +27°C° 0 mm 1 mps 647 mmHg 29%
21:00 +26°C° 0 mm 1 mps 647 mmHg 30%
22:00 +26°C° 0 mm 1 mps 647 mmHg 31%
23:00 +25°C° 0 mm 1 mps 646 mmHg 33%

Tomorrow, 7 August, Friday

Time Temperature Precipitation Wind Pressure Humidity
00:00 +24°C° 0 mm 2 mps 646 mmHg 34%
01:00 +24°C° 0 mm 2 mps 646 mmHg 35%
02:00 +23°C° 0 mm 2 mps 646 mmHg 36%
03:00 +23°C° 0 mm 2 mps 646 mmHg 37%
04:00 +22°C° 0 mm 1 mps 646 mmHg 38%
05:00 +21°C° 0 mm 1 mps 646 mmHg 39%
06:00 +23°C° 0 mm 1 mps 646 mmHg 35%
07:00 +25°C° 0 mm 2 mps 647 mmHg 31%
08:00 +26°C° 0 mm 2 mps 648 mmHg 27%
09:00 +28°C° 0 mm 2 mps 648 mmHg 25%
10:00 +29°C° 0 mm 2 mps 648 mmHg 23%
11:00 +30°C° 0 mm 3 mps 648 mmHg 21%
12:00 +31°C° 0 mm 3 mps 648 mmHg 20%
13:00 +33°C° 0 mm 3 mps 648 mmHg 19%
14:00 +34°C° 0 mm 3 mps 648 mmHg 18%
15:00 +34°C° 0 mm 3 mps 648 mmHg 18%
16:00 +34°C° 0 mm 3 mps 648 mmHg 17%
17:00 +34°C° 0 mm 3 mps 648 mmHg 17%
18:00 +31°C° 0 mm 3 mps 647 mmHg 20%
19:00 +29°C° 0 mm 2 mps 647 mmHg 23%
20:00 +27°C° 0 mm 1 mps 646 mmHg 27%
21:00 +26°C° 0 mm 1 mps 646 mmHg 27%
22:00 +26°C° 0 mm 1 mps 646 mmHg 28%
23:00 +25°C° 0 mm 1 mps 646 mmHg 29%

Day after tomorrow, 8 August, Saturday

Time Temperature Precipitation Wind Pressure Humidity
00:00 +25°C° 0 mm 1 mps 646 mmHg 30%
01:00 +24°C° 0 mm 1 mps 645 mmHg 31%
02:00 +23°C° 0 mm 1 mps 645 mmHg 32%
03:00 +23°C° 0 mm 2 mps 645 mmHg 33%
04:00 +21°C° 0 mm 2 mps 644 mmHg 33%
05:00 +21°C° 0 mm 2 mps 644 mmHg 34%
06:00 +24°C° 0 mm 2 mps 645 mmHg 31%
07:00 +25°C° 0 mm 2 mps 646 mmHg 29%
08:00 +27°C° 0 mm 2 mps 646 mmHg 26%
09:00 +28°C° 0 mm 2 mps 646 mmHg 25%
10:00 +29°C° 0 mm 3 mps 647 mmHg 23%
11:00 +30°C° 0 mm 3 mps 647 mmHg 22%
12:00 +32°C° 0 mm 4 mps 646 mmHg 21%
13:00 +32°C° 0 mm 4 mps 646 mmHg 20%
14:00 +33°C° 0 mm 4 mps 646 mmHg 20%
15:00 +33°C° 0 mm 4 mps 646 mmHg 20%
16:00 +33°C° 0 mm 4 mps 646 mmHg 19%
17:00 +33°C° 0 mm 4 mps 646 mmHg 19%
18:00 +30°C° 0 mm 3 mps 645 mmHg 22%
19:00 +28°C° 0 mm 3 mps 645 mmHg 24%
20:00 +27°C° 0 mm 2 mps 645 mmHg 27%
21:00 +26°C° 0 mm 2 mps 645 mmHg 28%
22:00 +25°C° 0 mm 2 mps 645 mmHg 30%
23:00 +24°C° 0 mm 2 mps 644 mmHg 31%

9 August, Sunday

Time Temperature Precipitation Wind Pressure Humidity
00:00 +24°C° 0 mm 2 mps 644 mmHg 32%
01:00 +23°C° 0 mm 2 mps 644 mmHg 33%
02:00 +23°C° 0 mm 2 mps 644 mmHg 34%
03:00 +21°C° 0 mm 2 mps 643 mmHg 36%
04:00 +21°C° 0 mm 2 mps 643 mmHg 37%
05:00 +20°C° 0 mm 2 mps 643 mmHg 38%
06:00 +23°C° 0 mm 2 mps 644 mmHg 36%
07:00 +24°C° 0 mm 2 mps 645 mmHg 33%
08:00 +26°C° 0 mm 2 mps 645 mmHg 30%
09:00 +27°C° 0 mm 3 mps 645 mmHg 29%
10:00 +28°C° 0 mm 3 mps 646 mmHg 27%
11:00 +29°C° 0 mm 4 mps 646 mmHg 26%
12:00 +30°C° 0 mm 4 mps 646 mmHg 25%
13:00 +30°C° 0 mm 4 mps 646 mmHg 24%
14:00 +32°C° 0 mm 4 mps 646 mmHg 23%
15:00 +32°C° 0 mm 4 mps 645 mmHg 22%
16:00 +32°C° 0 mm 4 mps 645 mmHg 22%
17:00 +32°C° 0 mm 4 mps 645 mmHg 21%
18:00 +30°C° 0 mm 3 mps 645 mmHg 24%
19:00 +28°C° 0 mm 2 mps 645 mmHg 26%
20:00 +26°C° 0 mm 1 mps 645 mmHg 29%
21:00 +26°C° 0 mm 1 mps 645 mmHg 30%
22:00 +25°C° 0 mm 1 mps 645 mmHg 31%
23:00 +24°C° 0 mm 1 mps 644 mmHg 33%

10 August, Monday

Time Temperature Precipitation Wind Pressure Humidity
00:00 +24°C° 0 mm 1 mps 644 mmHg 34%
01:00 +23°C° 0 mm 1 mps 644 mmHg 35%
02:00 +23°C° 0 mm 1 mps 644 mmHg 36%
03:00 +22°C° 0 mm 1 mps 644 mmHg 38%
04:00 +21°C° 0 mm 1 mps 643 mmHg 39%
05:00 +21°C° 0 mm 1 mps 643 mmHg 40%
06:00 +23°C° 0 mm 1 mps 644 mmHg 36%
07:00 +25°C° 0 mm 1 mps 645 mmHg 31%
08:00 +27°C° 0 mm 1 mps 646 mmHg 26%
09:00 +28°C° 0 mm 2 mps 646 mmHg 25%
10:00 +29°C° 0 mm 2 mps 646 mmHg 23%
11:00 +30°C° 0 mm 3 mps 646 mmHg 21%
12:00 +31°C° 0 mm 3 mps 646 mmHg 20%
13:00 +33°C° 0 mm 3 mps 646 mmHg 19%
14:00 +34°C° 0 mm 4 mps 646 mmHg 19%
15:00 +34°C° 0 mm 4 mps 645 mmHg 19%
16:00 +34°C° 0 mm 4 mps 645 mmHg 19%
17:00 +34°C° 0 mm 4 mps 645 mmHg 19%
18:00 +31°C° 0 mm 3 mps 645 mmHg 20%
19:00 +30°C° 0 mm 3 mps 645 mmHg 22%
20:00 +29°C° 0 mm 2 mps 645 mmHg 24%
21:00 +28°C° 0 mm 3 mps 645 mmHg 24%
22:00 +27°C° 0 mm 4 mps 645 mmHg 23%
23:00 +26°C° 0 mm 4 mps 644 mmHg 23%

11 August, Tuesday

Time Temperature Precipitation Wind Pressure Humidity
00:00 +25°C° 0 mm 4 mps 644 mmHg 25%
01:00 +23°C° 0 mm 4 mps 644 mmHg 27%
02:00 +22°C° 0 mm 4 mps 644 mmHg 29%
03:00 +21°C° 0 mm 3 mps 643 mmHg 32%
04:00 +20°C° 0 mm 2 mps 643 mmHg 35%
05:00 +19°C° 0 mm 2 mps 643 mmHg 38%
06:00 +21°C° 0 mm 2 mps 644 mmHg 36%
07:00 +23°C° 0 mm 1 mps 645 mmHg 33%
08:00 +24°C° 0 mm 1 mps 645 mmHg 31%
09:00 +26°C° 0 mm 2 mps 645 mmHg 29%
10:00 +27°C° 0 mm 3 mps 646 mmHg 27%
11:00 +28°C° 0 mm 3 mps 646 mmHg 25%
12:00 +29°C° 0 mm 4 mps 646 mmHg 24%
13:00 +30°C° 0 mm 4 mps 646 mmHg 23%
14:00 +30°C° 0 mm 5 mps 646 mmHg 22%
15:00 +32°C° 0 mm 5 mps 646 mmHg 21%
16:00 +32°C° 0 mm 5 mps 646 mmHg 21%
17:00 +32°C° 0 mm 5 mps 646 mmHg 20%
18:00 +29°C° 0 mm 4 mps 645 mmHg 23%
19:00 +27°C° 0 mm 3 mps 645 mmHg 25%
20:00 +25°C° 0 mm 2 mps 645 mmHg 28%
21:00 +24°C° 0 mm 2 mps 645 mmHg 29%
22:00 +24°C° 0 mm 2 mps 645 mmHg 30%
23:00 +22°C° 0 mm 3 mps 645 mmHg 31%
Show more